sat.trackr.live / text

‹ back to catalog

STARLINK-30948

NORAD 58525 · 2023-191T

PAYLOAD ACTIVE UNKNOWN

§ Identity

Operator
Country
US
Launch date
2023-12-07
Launch site
AFETR
Launch vehicle
Mass (kg)
RCS (m²)

Purposes: comms

External: N2YO · Heavens-Above · Gunter

§ Orbital elements

Epoch: 2026-05-25T01:30:34.644672Z

Period
94.27 min
Inclination
43.0006°
Eccentricity
0.0000891
Mean motion
15.27586642 rev/d
Perigee alt
482.4 km
Apogee alt
483.6 km
Semi-major
6,861.2 km
B*
8.0416e-5
RAAN
31.9462°
Arg perigee
282.7517°
Mean anomaly
77.3235°
Rev number
13,715

§ Raw data

STARLINK-309481 58525U 23191T   26145.06290098  .00001952  00000+0  80416-4 0  99922 58525  43.0006  31.9462 0000891 282.7517  77.3235 15.27586642137155

JSON: /api/v1/satellites/58525 · /tle

For live sub-satellite position, see the globe view (requires WebGL).

§ Visibility from observer

Set your observer location to see the next 7 days of passes ≥ 10°. The values pass through the URL so the page stays shareable.

No JS? Fill the form by hand. The geolocation button needs JavaScript.